Waarnemingen

Advertentie
Mijn weer
Koblenz/Falkensteinkaserne, Duitsland (10516): temperatuur & dauwpunt: 22.05.2017 06:00:00 - 28.05.2017 06:00:00 (CEST)Koblenz/Falkensteinkaserne, Duitsland (10516): windsnelheid: 22.05.2017 06:00:00 - 28.05.2017 06:00:00 (CEST)Koblenz/Falkensteinkaserne, Duitsland (10516): windrichting: 22.05.2017 06:00:00 - 28.05.2017 06:00:00 (CEST)Koblenz/Falkensteinkaserne, Duitsland (10516): luchtdruk: 22.05.2017 06:00:00 - 28.05.2017 06:00:00 (CEST)Koblenz/Falkensteinkaserne, Duitsland (10516): zicht: 22.05.2017 06:00:00 - 28.05.2017 06:00:00 (CEST)
Datum & Tijd tt [°C] td [°C] ff [km/u] ff [kn] dd ppp [hPa] vv [km]
28.05.2017 06:00:00 16,6 13,1 7 4 N 1018,7 -
28.05.2017 05:00:00 16,2 12,8 4 2 N 1018,6 -
28.05.2017 04:00:00 17,0 12,9 4 2 N 1018,7 -
28.05.2017 03:00:00 18,1 13,1 4 2 N 1018,5 -
28.05.2017 02:00:00 19,6 12,7 4 2 N 1018,6 -
28.05.2017 01:00:00 20,9 12,3 7 4 N 1018,4 -
28.05.2017 00:00:00 22,3 11,9 4 2 ZZW 1018,2 -
27.05.2017 23:00:00 24,5 11,7 7 4 ZO 1018,1 -
27.05.2017 22:00:00 25,3 10,0 7 4 N 1017,6 -
27.05.2017 21:00:00 27,9 8,8 7 4 OZO 1016,7 -
27.05.2017 20:00:00 29,2 8,0 7 4 OZO 1016,6 -
27.05.2017 19:00:00 29,9 7,4 7 4 ZZO 1016,7 -
27.05.2017 18:00:00 29,8 8,0 7 4 ZZO 1016,8 -
27.05.2017 17:00:00 29,5 8,9 14 8 Z 1017,0 -
27.05.2017 16:00:00 29,7 9,3 11 6 Z 1017,2 -
27.05.2017 15:00:00 29,2 9,8 11 6 ZZO 1017,5 -
27.05.2017 14:00:00 29,0 9,2 11 6 ZO 1017,7 -
27.05.2017 13:00:00 28,1 8,7 11 6 ZO 1018,2 -
27.05.2017 12:00:00 26,7 11,1 11 6 O 1018,8 -
27.05.2017 11:00:00 24,4 11,7 11 6 OZO 1019,3 -
27.05.2017 10:00:00 22,9 11,1 7 4 ZO 1019,9 -
27.05.2017 09:00:00 20,3 12,1 7 4 N 1020,1 -
27.05.2017 08:00:00 17,4 11,7 7 4 N 1020,3 -
27.05.2017 07:00:00 15,0 11,7 4 2 N 1020,4 -
27.05.2017 06:00:00 13,8 11,8 7 4 N 1020,0 -
27.05.2017 05:00:00 14,3 12,0 4 2 N 1019,6 -
27.05.2017 04:00:00 14,2 12,2 4 2 W 1019,1 -
27.05.2017 03:00:00 15,0 12,4 7 4 N 1019,4 -
27.05.2017 02:00:00 15,8 12,5 4 2 ZW 1019,4 -
27.05.2017 01:00:00 16,6 12,6 4 2 N 1019,6 -
27.05.2017 00:00:00 18,0 12,5 4 2 N 1019,4 -
26.05.2017 23:00:00 19,7 11,6 4 2 O 1019,4 -
26.05.2017 22:00:00 22,6 11,3 7 4 NO 1018,8 -
26.05.2017 21:00:00 24,5 10,8 7 4 ONO 1018,6 40
26.05.2017 20:00:00 25,6 10,7 11 6 O 1018,4 40
26.05.2017 19:00:00 26,0 10,0 11 6 NO 1018,4 40
26.05.2017 18:00:00 26,5 10,1 11 6 ONO 1018,8 40
26.05.2017 17:00:00 26,2 10,3 7 4 O 1019,1 40
26.05.2017 16:00:00 25,9 9,6 11 6 ONO 1019,6 40
26.05.2017 15:00:00 25,1 8,7 14 8 O 1020,4 40
26.05.2017 14:00:00 24,8 10,2 11 6 OZO 1020,9 40
26.05.2017 13:00:00 22,6 10,4 7 4 NNW 1021,7 40
26.05.2017 12:00:00 21,2 11,2 7 4 ZZW 1022,3 40
26.05.2017 11:00:00 19,9 11,5 7 4 NO 1022,7 30
26.05.2017 10:00:00 18,6 11,2 7 4 O 1023,1 30
26.05.2017 09:00:00 17,5 11,2 7 4 O 1023,4 30
26.05.2017 08:00:00 14,6 9,9 4 2 NW 1023,2 30
26.05.2017 07:00:00 12,6 9,8 4 2 NNW 1023,2 30
26.05.2017 06:00:00 - - - - - - -
26.05.2017 05:00:00 - - - - - - -
26.05.2017 04:00:00 12,5 10,4 4 2 N 1022,7 -
26.05.2017 03:00:00 13,5 10,6 4 2 N 1022,4 -
26.05.2017 02:00:00 14,4 10,9 4 2 N 1022,6 -
26.05.2017 01:00:00 15,5 10,9 4 2 N 1022,6 -
26.05.2017 00:00:00 17,3 9,7 4 2 N 1022,5 -
25.05.2017 23:00:00 18,0 9,6 4 2 NNW 1022,5 -
25.05.2017 22:00:00 20,5 9,3 7 4 NNO 1021,9 -
25.05.2017 21:00:00 22,5 8,7 14 8 NNO 1021,3 -
25.05.2017 20:00:00 23,5 8,1 18 10 N 1021,0 -
25.05.2017 19:00:00 24,5 7,3 14 8 N 1021,1 -
25.05.2017 18:00:00 24,2 9,2 11 6 NW 1021,2 -
25.05.2017 17:00:00 23,5 9,8 14 8 NW 1021,8 -
25.05.2017 16:00:00 23,2 10,3 14 8 NNW 1022,5 -
25.05.2017 15:00:00 22,6 10,0 14 8 NNW 1022,8 -
25.05.2017 14:00:00 21,6 9,3 14 8 NNW 1023,1 -
25.05.2017 13:00:00 20,6 9,7 14 8 WNW 1023,6 -
25.05.2017 12:00:00 19,4 10,6 11 6 WNW 1024,0 -
25.05.2017 11:00:00 18,0 11,0 11 6 NW 1024,5 -
25.05.2017 10:00:00 16,9 11,0 7 4 W 1024,4 -
25.05.2017 09:00:00 15,4 10,2 7 4 N 1024,5 -
25.05.2017 08:00:00 14,6 10,1 7 4 N 1024,2 -
25.05.2017 07:00:00 13,5 9,9 4 2 NNW 1024,1 -
25.05.2017 06:00:00 12,9 10,4 4 2 WNW 1023,7 -
25.05.2017 05:00:00 14,3 10,4 7 4 NNW 1023,3 -
25.05.2017 04:00:00 15,5 11,2 7 4 NNW 1023,6 -
25.05.2017 03:00:00 16,4 11,2 7 4 NNW 1023,5 -
25.05.2017 02:00:00 16,1 11,5 7 4 NW 1023,4 -
25.05.2017 01:00:00 16,5 11,7 4 2 NW 1023,4 -
25.05.2017 00:00:00 16,3 12,4 4 2 NNO 1023,2 -
24.05.2017 23:00:00 18,4 11,9 4 2 N 1023,1 20
24.05.2017 22:00:00 19,2 11,7 4 2 ZW 1022,7 -
24.05.2017 21:00:00 20,4 11,4 11 6 N 1022,5 20
24.05.2017 20:00:00 21,0 10,8 11 6 NNW 1022,1 30
24.05.2017 19:00:00 21,7 10,7 14 8 NNW 1022,1 30
24.05.2017 18:00:00 21,3 12,0 11 6 NW 1022,4 20
24.05.2017 17:00:00 20,8 11,8 11 6 WNW 1022,7 20
24.05.2017 16:00:00 20,4 11,3 11 6 WNW 1023,1 20
24.05.2017 15:00:00 19,8 11,3 11 6 WNW 1023,4 20
24.05.2017 14:00:00 19,8 11,0 7 4 W 1023,8 30
24.05.2017 13:00:00 19,4 10,5 11 6 WNW 1023,9 30
24.05.2017 12:00:00 18,8 10,3 7 4 WNW 1024,4 30
24.05.2017 11:00:00 18,1 8,9 7 4 NNW 1024,6 30
24.05.2017 10:00:00 17,2 7,8 7 4 NNO 1024,9 30
24.05.2017 09:00:00 15,0 7,6 4 2 NNW 1024,8 25
24.05.2017 08:00:00 13,5 7,6 4 2 Z 1024,6 25
24.05.2017 07:00:00 11,5 7,7 4 2 N 1024,5 25
24.05.2017 06:00:00 11,2 8,1 4 2 N 1024,1 -
24.05.2017 05:00:00 11,4 6,9 4 2 NNO 1023,6 -
24.05.2017 04:00:00 12,9 6,7 4 2 W 1023,5 -
24.05.2017 03:00:00 13,5 6,7 7 4 N 1023,4 -
24.05.2017 02:00:00 14,4 6,3 7 4 NW 1023,4 -
24.05.2017 01:00:00 15,5 6,1 7 4 NW 1023,2 -
24.05.2017 00:00:00 16,6 5,8 11 6 NW 1022,9 -
23.05.2017 23:00:00 17,6 5,7 14 8 NNW 1022,6 -
23.05.2017 22:00:00 19,0 6,0 14 8 NW 1021,6 -
23.05.2017 21:00:00 20,4 7,9 14 8 NNW 1020,2 20
23.05.2017 20:00:00 21,7 10,3 14 8 NW 1019,6 20
23.05.2017 19:00:00 22,6 10,7 18 10 NW 1018,8 20
23.05.2017 18:00:00 23,6 9,9 22 12 NNW 1018,3 30
23.05.2017 17:00:00 24,5 10,2 18 10 NW 1018,1 40
23.05.2017 16:00:00 24,7 9,0 18 10 NNW 1017,6 40
23.05.2017 15:00:00 25,9 10,8 14 8 NNW 1017,0 40
23.05.2017 14:00:00 25,5 9,6 11 6 W 1016,9 40
23.05.2017 13:00:00 24,8 10,4 7 4 WZW 1017,0 40
23.05.2017 12:00:00 24,2 11,2 7 4 W 1017,2 40
23.05.2017 11:00:00 22,0 11,3 7 4 WNW 1017,5 30
23.05.2017 10:00:00 20,1 11,0 4 2 ZZW 1017,5 30
23.05.2017 09:00:00 17,6 10,3 4 2 ZZO 1017,6 30
23.05.2017 08:00:00 15,5 10,6 4 2 WZW 1017,6 30
23.05.2017 07:00:00 13,4 10,3 4 2 N 1017,6 30
23.05.2017 06:00:00 13,4 10,4 7 4 ZZO 1017,2 -
23.05.2017 05:00:00 13,6 10,5 7 4 Z 1017,0 -
23.05.2017 04:00:00 13,8 10,7 4 2 N 1016,7 -
23.05.2017 03:00:00 14,9 10,7 4 2 Z 1016,9 -
23.05.2017 02:00:00 15,6 10,2 7 4 N 1017,0 -
23.05.2017 01:00:00 15,9 10,2 4 2 N 1017,2 -
23.05.2017 00:00:00 16,8 10,2 7 4 N 1017,1 -
22.05.2017 23:00:00 17,9 10,1 7 4 N 1016,9 -
22.05.2017 22:00:00 19,2 9,0 7 4 N 1016,8 -
22.05.2017 21:00:00 21,1 8,5 7 4 N 1016,5 30
22.05.2017 20:00:00 22,4 7,9 7 4 ZO 1016,2 30
22.05.2017 19:00:00 23,3 7,7 7 4 OZO 1016,5 30
22.05.2017 18:00:00 22,8 7,1 7 4 OZO 1016,9 40
22.05.2017 17:00:00 23,2 6,9 11 6 OZO 1017,3 40
22.05.2017 16:00:00 23,5 7,3 11 6 OZO 1017,7 40
22.05.2017 15:00:00 22,9 6,5 11 6 ZO 1018,1 40
22.05.2017 14:00:00 22,1 7,8 11 6 OZO 1018,7 40
22.05.2017 13:00:00 22,1 7,9 11 6 OZO 1019,0 40
22.05.2017 12:00:00 21,1 8,7 7 4 O 1019,8 40
22.05.2017 11:00:00 19,4 8,2 7 4 OZO 1020,3 40
22.05.2017 10:00:00 17,5 8,2 4 2 O 1020,7 30
22.05.2017 09:00:00 14,3 8,3 4 2 O 1021,2 30
22.05.2017 08:00:00 11,9 8,1 4 2 ZW 1021,7 30
22.05.2017 07:00:00 9,7 7,8 4 2 NW 1021,7 25
22.05.2017 06:00:00 9,6 8,2 7 4 N 1021,6 -

tt = temperatuur
td = dauwpunt
ff = windsnelheid
dd = windrichting
ppp = luchtdruk
vv = zicht

Weerstations in de omgeving